DL7GAI-7 Weather Reports


time (UTC)temp
F
wind
direction
speed
knots
gust
knots
rain 1hr
in
rain 24hr
in
rain mn
in
humidity
%
barometer
mb
20260505024045 48 315 2.6 4.3 0.00 0.00 0.00 96 1011.7
20260505022715 49 0 1.7 3.5 0.00 0.00 0.00 94 1011.6
20260505021425 49 0 1.7 3.5 0.00 0.00 0.00 94 1011.6
20260505020015 50 315 1.7 6.1 0.00 0.00 0.00 92 1012.0
20260505014709 50 315 1.7 6.1 0.00 0.00 0.00 92 1012.0
20260505013400 53 315 5.2 6.1 0.00 0.00 0.00 91 1012.0
20260505012050 53 315 5.2 6.1 0.00 0.00 0.00 91 1012.0
20260505010715 53 315 5.2 6.1 0.00 0.00 0.00 91 1012.0
20260505005405 54 315 4.3 7.0 0.00 0.00 0.00 87 1012.4
20260505004040 54 315 4.3 7.0 0.00 0.00 0.00 87 1012.4
20260505002600 54 315 4.3 7.0 0.00 0.00 0.00 87 1012.4
20260505001145 54 315 4.3 7.0 0.00 0.00 0.00 87 1012.4
20260504235805 56 270 3.5 7.0 0.00 0.00 0.00 78 1012.7
20260504234349 56 270 3.5 7.0 0.00 0.00 0.00 78 1012.7
20260504233011 56 270 3.5 7.0 0.00 0.00 0.00 78 1012.7
20260504231640 56 270 3.5 7.0 0.00 0.00 0.00 78 1012.7
20260504230329 56 270 3.5 7.0 0.00 0.00 0.00 78 1012.7
20260504225020 56 270 3.5 7.0 0.00 0.00 0.00 78 1012.7
20260504223815 56 270 3.5 7.0 0.00 0.00 0.00 78 1012.7
20260504222449 58 270 3.5 7.0 0.00 0.00 0.00 74 1012.5
20260504221110 58 270 3.5 7.0 0.00 0.00 0.00 74 1012.5
20260504215720 58 270 3.5 7.0 0.00 0.00 0.00 74 1012.5
20260504214440 58 270 3.5 7.0 0.00 0.00 0.00 74 1012.5
20260504213204 58 270 3.5 7.0 0.00 0.00 0.00 74 1012.5
20260504211929 58 270 3.5 7.0 0.00 0.00 0.00 74 1012.5
20260504210558 58 270 3.5 7.0 0.00 0.00 0.00 71 1012.2
20260504205205 58 270 3.5 7.0 0.00 0.00 0.00 71 1012.2
20260504203915 58 270 3.5 7.0 0.00 0.00 0.00 71 1012.2
20260504202615 62 270 3.5 11.3 0.00 0.00 0.00 62 1011.5
20260504201240 62 270 3.5 11.3 0.00 0.00 0.00 62 1011.5
20260504195915 62 270 3.5 11.3 0.00 0.00 0.00 62 1011.5
20260504194659 62 270 3.5 11.3 0.00 0.00 0.00 62 1011.5
20260504193402 65 270 7.8 14.8 0.00 0.00 0.00 52 1011.3
20260504192020 65 270 7.8 14.8 0.00 0.00 0.00 52 1011.3
20260504190700 65 270 7.8 14.8 0.00 0.00 0.00 52 1011.3
20260504185345 65 270 7.8 14.8 0.00 0.00 0.00 52 1011.3
20260504184135 65 270 7.8 14.8 0.00 0.00 0.00 52 1011.3
20260504182900 67 225 6.1 12.2 0.00 0.00 0.00 41 1011.2
20260504181520 67 225 6.1 12.2 0.00 0.00 0.00 41 1011.2
20260504180140 69 270 3.5 6.1 0.00 0.00 0.00 40 1010.7
20260504174825 69 270 3.5 6.1 0.00 0.00 0.00 40 1010.7
20260504173435 69 270 3.5 6.1 0.00 0.00 0.00 40 1010.7
20260504171945 69 270 3.5 6.1 0.00 0.00 0.00 40 1010.7
20260504170635 69 270 3.5 6.1 0.00 0.00 0.00 40 1010.7
20260504150420 71 270 3.5 7.0 0.00 0.00 0.00 39 1010.7
20260504141115 71 270 3.5 7.0 0.00 0.00 0.00 39 1010.7
20260504130435 72 45 4.3 10.4 0.00 0.00 0.00 33 1011.2
20260504110229 66 180 2.6 6.1 0.00 0.00 0.00 50 1013.3
20260504081756 63 135 2.6 5.2 0.00 0.00 0.00 60 1014.3
20260504080405 61 135 1.7 4.3 0.00 0.00 0.00 65 1014.5
20260504050504 49 315 1.7 5.2 0.00 0.00 0.00 90 1015.9
20260504045120 49 315 1.7 5.2 0.00 0.00 0.00 90 1015.9
20260504043735 49 315 1.7 5.2 0.00 0.00 0.00 90 1015.9
20260504042425 48 0 1.7 3.5 0.00 0.00 0.00 90 1016.0
20260504041048 48 0 1.7 3.5 0.00 0.00 0.00 90 1016.0
20260504035720 49 45 1.7 3.5 0.00 0.00 0.00 88 1016.2
20260504034440 49 45 1.7 3.5 0.00 0.00 0.00 88 1016.2
20260504033012 49 45 1.7 3.5 0.00 0.00 0.00 88 1016.2
20260504031618 49 45 1.7 3.5 0.00 0.00 0.00 88 1016.2
20260504030300 32 0 0.0 0.0 0.00 0.00 0.00 1